Flag for Colombia Weather past 2 weeks in San Andrés, Colombia

Now
82 °F

Partly sunny.


Feels Like: 89 °F
Forecast: 80 / 84 °F
Wind: 10 mph from East

Location: San Andres Isla / Sesquicentenario

Current Time: Dec 25, 2014 at 9:19:05 AM

Latest Report: Dec 25, 2014 at 9:00 AM


Visibility: N/A

Pressure: 29.94 "Hg

Humidity: 79%

Dew point: 75 °F

Location of San AndrésLocation

Historic Weather in San Andrés — Graph

°F

San Andrés temperature yesterday

Maximum temperature yesterday: 84 °F (at 9:00 AM)
Minimum temperature yesterday: 81 °F (at 2:00 AM)
Average temperature yesterday: 83 °F

Past Weeks' High & Low Weather Summary

 TemperatureHumidityPressure
High86 °F (Dec 17, 12:00 PM)94% (Dec 12, 3:00 AM)30.05 "Hg (Dec 12, 3:00 AM)
Low68 °F (Dec 13, 9:00 AM)70% (Dec 10, 1:00 PM)29.74 "Hg (Dec 23, 4:00 PM)
Average81 °F83%29.87 "Hg
* Reported Dec 10 8:00 AM — Dec 25 8:00 AM, San Andrés, Weather by CustomWeather, © 2014

Note: Actual official high and low records may vary slightly from our data, if they occured in-between our weather recording intervals... More about our weather records

Advertising

San Andrés weather history for previous 24 hours

 ConditionsComfort  
Time TempWeatherWind HumidityBarometerVisibility
8:00 AM
Dec 25
82 °FScattered clouds.10 mph79%29.92 "HgN/A
7:00 AM82 °FPartly sunny.10 mph79%29.90 "HgN/A
6:00 AM82 °FPassing clouds.8 mph74%29.88 "HgN/A
2:00 AM82 °FPassing clouds.5 mph79%29.88 "HgN/A
1:00 AM82 °FPassing clouds.7 mph79%29.88 "HgN/A
12:00 AM82 °FPassing clouds.5 mph84%29.89 "HgN/A
11:00 PM
Dec 24
82 °FPassing clouds.8 mph79%29.91 "HgN/A
10:00 PM82 °FPassing clouds.5 mph84%29.88 "HgN/A
9:00 PM82 °FPassing clouds.6 mph84%29.86 "HgN/A
8:00 PM82 °FPassing clouds.6 mph84%29.84 "HgN/A
7:00 PM82 °FPassing clouds.6 mph84%29.82 "HgN/A
6:00 PM82 °FPassing clouds.3 mph84%29.81 "HgN/A
5:00 PM82 °FPassing clouds.2 mph79%29.79 "HgN/A
4:00 PM84 °FScattered clouds.2 mph79%29.79 "HgN/A
3:00 PM84 °FScattered clouds.2 mph79%29.80 "HgN/A
2:00 PM84 °FPassing clouds.2 mph79%29.81 "HgN/A
1:00 PM84 °FPassing clouds.3 mph79%29.83 "HgN/A
12:00 PM84 °FScattered clouds.6 mph79%29.85 "HgN/A
11:00 AM84 °FPassing clouds.3 mph84%29.87 "HgN/A
10:00 AM84 °FPassing clouds.7 mph79%29.87 "HgN/A
9:00 AM84 °FPassing clouds.6 mph79%29.85 "HgN/A
Weather by CustomWeather, © 2014

See weather overviewHow to use our weather pages